Location: Malvern Link
(52.1333°N, 2.3000°W)
Time: 15:16:41
(UTC+00:00)

SO-50 - Pass Details

Date: 02 July 2022
Orbit: 585 x 698 km, 64.6° (Epoch: 11 August)

Event Time Altitude Azimuth Distance (km) Brightness Sun altitude
Exits shadow 23:31:17 21° 148° (SSE) 1,490 ? -14.3°
Maximum altitude 23:32:56 25° 116° (ESE) 1,331 ? -14.4°
Drops below altitude 10° 23:36:53 10° 62° (ENE) 2,129 ? -14.5°
Sets 23:39:34 0° 49° (NE) 3,063 ? -14.5°
